• Join FlightAware (Why Join?)
  • Login
  • US Flag GB Flag 
19:24 EDT


 

Airport Tracker/Info


-or-


 

Live Flight TrackerFlight Track Log ✈ N41NW ✈ 30-Nov-2011 ✈ KRDU - KGTU

Flight Track Log - Related Links

Times and Time Zones

All times are in EST time to prevent confusion due to time zone crossing. See the N41NW flight status page for this flight to view local times or setup timezone preferences in your user account.

Time Position Orientation Groundspeed Altitude Reporting Facility
EST Latitude Longitude Course Direction KTS MPH feet Rate Location/Type
13:11 35.8561 -78.8083 254° West 191 220 1,400  Level Washington Center
13:12 35.8397 -78.8769 266° West 221 254 5,100 3,840 Climbing Washington Center
13:13 35.8350 -78.9689 272° West 249 287 10,000 3,540 Climbing Washington Center
13:14 35.8369 -79.0536 266° West 249 287 13,200 2,520 Climbing Washington Center
13:15 35.8325 -79.1328 268° West 249 287 15,200 2,460 Climbing Washington Center
13:16 35.8292 -79.2428 269° West 285 328 18,100 2,640 Climbing Washington Center
13:17 35.8283 -79.3400 263° West 291 335 20,500 1,860 Climbing Washington Center
13:19 35.8136 -79.4961 266° West 298 343 23,000 1,320 Climbing Atlanta Center
13:20 35.8075 -79.6167 280° West 342 394 24,000 1,500 Climbing Atlanta Center
13:21 35.8244 -79.7411 271° West 342 394 26,000 960 Climbing Atlanta Center
13:22 35.8267 -79.8642 246° West 356 410 26,000 480 Level Atlanta Center
13:23 35.7828 -79.9842 240° Southwest 366 421 27,000 1,560 Climbing Atlanta Center
13:24 35.7339 -80.0889 239° Southwest 366 421 29,200 1,440 Climbing Atlanta Center
13:25 35.6850 -80.1908 240° Southwest 355 409 29,900 1,080 Climbing Atlanta Center
13:26 35.6342 -80.3006 242° Southwest 368 423 31,400 960 Climbing Atlanta Center
13:27 35.5875 -80.4100 241° Southwest 368 423 31,900 660 Climbing Atlanta Center
13:28 35.5383 -80.5192 242° Southwest 368 423 32,800 1,080 Climbing Atlanta Center
13:29 35.4972 -80.6128 243° Southwest 362 417 34,100 1,080 Climbing Atlanta Center
13:30 35.4522 -80.7194 242° Southwest 353 406 35,000 900 Climbing Atlanta Center
13:31 35.4089 -80.8206 258° West 353 406 36,000 900 Climbing Atlanta Center
13:32 35.3889 -80.9333 253° West 341 392 36,800 540 Climbing Atlanta Center
13:33 35.3586 -81.0542 257° West 341 392 37,100 120 Climbing Atlanta Center
13:34 35.3364 -81.1694 256° West 347 399 37,100  Level Atlanta Center
13:35 35.3119 -81.2900 258° West 360 414 37,200 420 Climbing Atlanta Center
13:36 35.2917 -81.4078 254° West 360 414 38,000 360 Climbing Atlanta Center
13:37 35.2647 -81.5231 257° West 360 414 38,000  Level Atlanta Center
13:38 35.2422 -81.6408 256° West 360 414 38,000  Level Atlanta Center
13:39 35.2211 -81.7481 256° West 360 414 38,000  Level Atlanta Center
13:40 35.1964 -81.8708 256° West 366 421 38,000  Level Atlanta Center
13:41 35.1714 -81.9933 255° West 371 427 38,000  Level Atlanta Center
13:42 35.1442 -82.1161 255° West 371 427 38,000  Level Atlanta Center
13:43 35.1186 -82.2358 254° West 371 427 38,000  Level Atlanta Center
13:44 35.0911 -82.3508 256° West 371 427 38,000  Level Atlanta Center
13:45 35.0636 -82.4858 255° West 371 427 38,000  Level Atlanta Center
13:46 35.0381 -82.6056 255° West 371 427 38,000  Level Atlanta Center
13:47 35.0122 -82.7250 254° West 371 427 38,000  Level Atlanta Center
13:48 34.9842 -82.8472 256° West 371 427 38,000  Level Atlanta Center
13:49 34.9603 -82.9667 255° West 371 427 38,000  Level Atlanta Center
13:50 34.9342 -83.0886 253° West 376 433 38,100  Climbing Atlanta Center
13:51 34.9039 -83.2056 257° West 371 427 38,100 -60 Level Atlanta Center
13:52 34.8817 -83.3272 254° West 371 427 38,000 -60 Descending Atlanta Center
13:53 34.8531 -83.4464 254° West 378 435 38,000  Level Atlanta Center
13:54 34.8264 -83.5631 253° West 372 428 38,000  Level Atlanta Center
13:55 34.7975 -83.6797 256° West 367 422 38,000  Level Atlanta Center
13:56 34.7750 -83.7883 255° West 360 414 38,000  Level Atlanta Center
13:57 34.7481 -83.9072 255° West 373 429 38,000  Level Atlanta Center
13:58 34.7208 -84.0311 254° West 378 435 38,000  Level Atlanta Center
13:59 34.6936 -84.1475 255° West 378 435 38,000  Level Atlanta Center
14:00 34.6686 -84.2636 254° West 372 428 38,000  Level Atlanta Center
14:01 34.6411 -84.3822 254° West 367 422 38,000  Level Atlanta Center
14:02 34.6136 -84.4981 255° West 367 422 38,000  Level Atlanta Center
14:03 34.5881 -84.6167 254° West 367 422 38,000  Level Atlanta Center
14:04 34.5603 -84.7350 254° West 367 422 38,000  Level Atlanta Center
14:05 34.5283 -84.8683 255° West 367 422 38,000  Level Atlanta Center
14:06 34.5022 -84.9864 254° West 367 422 38,000  Level Atlanta Center
14:07 34.4742 -85.1072 250° West 367 422 38,000  Level Atlanta Center
14:08 34.4419 -85.2150 254° West 374 430 38,000  Level Atlanta Center
14:09 34.4136 -85.3356 256° West 379 436 38,000  Level Atlanta Center
14:10 34.3850 -85.4711 254° West 379 436 38,000  Level Atlanta Center
14:11 34.3564 -85.5939 254° West 379 436 38,000  Level Atlanta Center
14:12 34.3275 -85.7139 253° West 372 428 38,000  Level Atlanta Center
14:13 34.2967 -85.8392 250° West 383 441 38,000  Level Atlanta Center
14:14 34.2658 -85.9417 255° West 378 435 38,000  Level Atlanta Center
14:15 34.2389 -86.0642 251° West 378 435 38,000  Level Atlanta Center
14:16 34.2056 -86.1839 253° West 378 435 38,000  Level Atlanta Center
14:17 34.1742 -86.3061 254° West 378 435 38,000  Level Atlanta Center
14:18 34.1447 -86.4283 253° West 378 435 38,000  Level Atlanta Center
14:19 34.1131 -86.5503 254° West 378 435 38,000  Level Atlanta Center
14:20 34.0833 -86.6747 252° West 378 435 38,000  Level Atlanta Center
14:21 34.0514 -86.7942 253° West 378 435 38,000  Level Atlanta Center
14:22 34.0017 -86.9847 251° West 384 442 38,000  Level Memphis Center
14:23 33.9692 -87.1011 254° West 379 436 38,000  Level Memphis Center
14:24 33.9353 -87.2403 253° West 385 443 38,000  Level Memphis Center
14:25 33.9047 -87.3614 252° West 390 449 38,000  Level Memphis Center
14:26 33.8703 -87.4878 254° West 390 449 38,000  Level Memphis Center
14:27 33.8417 -87.6086 250° West 382 440 38,000  Level Memphis Center
14:28 33.8086 -87.7197 252° West 382 440 38,000  Level Memphis Center
14:29 33.7719 -87.8583 253° West 392 451 38,000  Level Memphis Center
14:30 33.7408 -87.9842 251° West 392 451 38,000  Level Memphis Center
14:31 33.7056 -88.1075 252° West 397 457 38,000  Level Memphis Center
14:32 33.6725 -88.2331 251° West 397 457 38,000  Level Memphis Center
14:33 33.6369 -88.3586 251° West 397 457 38,000  Level Memphis Center
14:34 33.6014 -88.4842 252° West 402 463 38,000  Level Memphis Center
14:35 33.5675 -88.6094 255° West 402 463 38,000  Level Memphis Center
14:36 33.5381 -88.7397 251° West 402 463 38,000  Level Memphis Center
14:37 33.5019 -88.8650 252° West 402 463 38,000  Level Memphis Center
14:38 33.4661 -88.9950 252° West 402 463 38,000  Level Memphis Center
14:39 33.4319 -89.1200 251° West 408 470 38,000  Level Memphis Center
14:40 33.3956 -89.2475 251° West 408 470 38,000  Level Memphis Center
14:41 33.3589 -89.3772 251° West 408 470 38,000  Level Memphis Center
14:42 33.3222 -89.5044 252° West 408 470 38,000  Level Memphis Center
14:43 33.2917 -89.6192 252° West 408 470 38,000  Level Memphis Center
14:44 33.2569 -89.7436 251° West 408 470 38,000  Level Memphis Center
14:45 33.2200 -89.8706 251° West 408 470 38,000  Level Memphis Center
14:46 33.1828 -89.9997 251° West 408 470 38,000  Level Memphis Center
14:47 33.1456 -90.1264 251° West 408 470 38,000  Level Memphis Center
14:48 33.1081 -90.2531 252° West 408 470 38,000  Level Memphis Center
14:49 33.0728 -90.3819 250° West 408 470 38,000  Level Memphis Center
14:50 33.0350 -90.5083 251° West 408 470 38,000  Level Memphis Center
14:51 32.9994 -90.6347 249° West 408 470 38,000  Level Memphis Center
14:52 32.9614 -90.7558 251° West 408 470 38,000  Level Memphis Center
14:53 32.9214 -90.8919 251° West 408 470 38,000  Level Memphis Center
14:54 32.8853 -91.0153 250° West 408 470 38,000  Level Memphis Center
14:55 32.8511 -91.1289 251° West 394 453 38,000  Level Memphis Center
14:56 32.8192 -91.2397 252° West 379 436 38,000  Level Memphis Center
14:59 32.7500 -91.4858 249° West 344 396 38,100  Climbing Fort Worth Center
15:00 32.7136 -91.5992 250° West 356 410 38,100 -60 Level Fort Worth Center
15:01 32.6772 -91.7175 249° West 368 423 38,000  Descending Fort Worth Center
15:02 32.6406 -91.8283 251° West 380 437 38,200 900 Climbing Fort Worth Center
15:03 32.6061 -91.9489 250° West 375 432 39,900 840 Climbing Fort Worth Center
15:04 32.5731 -92.0544 250° West 362 417 39,900  Level Fort Worth Center
15:05 32.5383 -92.1672 250° West 362 417 40,000  Climbing Fort Worth Center
15:06 32.5033 -92.2828 250° West 362 417 40,000  Level Fort Worth Center
15:07 32.4683 -92.3978 248° West 367 422 40,000  Level Fort Worth Center
15:08 32.4347 -92.4983 250° West 372 428 40,000  Level Fort Worth Center
15:09 32.3939 -92.6333 251° West 391 450 40,000  Level Fort Worth Center
15:10 32.3589 -92.7506 249° West 398 458 40,000  Level Fort Worth Center
15:11 32.3194 -92.8706 250° West 392 451 40,100  Climbing Fort Worth Center
15:12 32.2839 -92.9856 250° West 392 451 40,000 -60 Descending Fort Worth Center
15:13 32.2536 -93.0828 247° West 392 451 40,000  Level Fort Worth Center
15:14 32.2097 -93.2025 250° West 385 443 40,000  Level Fort Worth Center
15:15 32.1739 -93.3197 250° West 385 443 40,000  Level Fort Worth Center
15:16 32.1325 -93.4539 250° West 399 459 40,000  Level Fort Worth Center
15:17 32.0944 -93.5758 249° West 394 453 40,000  Level Fort Worth Center
15:18 32.0561 -93.6925 249° West 394 453 40,000  Level Fort Worth Center
15:19 32.0217 -93.7994 248° West 394 453 40,000  Level Fort Worth Center
15:20 31.9831 -93.9133 250° West 394 453 40,000  Level Fort Worth Center
15:21 31.9447 -94.0350 248° West 394 453 40,000  Level Fort Worth Center
15:22 31.9039 -94.1539 249° West 394 453 40,000  Level Fort Worth Center
15:23 31.8653 -94.2725 249° West 394 453 40,100  Climbing Fort Worth Center
15:24 31.8264 -94.3914 250° West 394 453 40,100 -60 Level Fort Worth Center
15:25 31.7894 -94.5075 248° West 394 453 40,000 -60 Descending Fort Worth Center
15:26 31.7483 -94.6258 249° West 394 453 40,000  Level Fort Worth Center
15:27 31.7092 -94.7444 249° West 394 453 40,000  Level Fort Worth Center
15:28 31.6697 -94.8625 249° West 394 453 40,000  Level Fort Worth Center
15:29 31.6303 -94.9808 248° West 394 453 40,000  Level Fort Worth Center
15:30 31.5908 -95.0964 248° West 394 453 40,000  Level Fort Worth Center
15:31 31.5492 -95.2144 247° West 394 453 40,000  Level Fort Worth Center
15:32 31.5092 -95.3275 248° West 391 450 40,000  Level Fort Worth Center
15:33 31.4672 -95.4478 247° West 386 444 40,000  Level Fort Worth Center
15:34 31.4253 -95.5631 249° West 386 444 40,000  Level Fort Worth Center
15:35 31.3631 -95.7569 248° West 383 441 40,000  Level Houston Center
15:36 31.3219 -95.8742 249° West 389 448 40,000  Level Houston Center
15:37 31.2828 -95.9917 247° West 389 448 40,000  Level Houston Center
15:38 31.2414 -96.1064 247° West 389 448 40,000 -360 Level Houston Center
15:39 31.1978 -96.2256 247° West 389 448 39,300 -1,560 Descending Houston Center
15:40 31.1539 -96.3472 250° West 406 467 36,900 -2,940 Descending Houston Center
15:41 31.1142 -96.4739 247° West 412 474 33,500 -3,600 Descending Houston Center
15:42 31.0653 -96.6072 248° West 434 499 29,700 -3,480 Descending Houston Center
15:43 31.0164 -96.7453 248° West 458 527 26,600 -2,940 Descending Houston Center
15:44 30.9697 -96.8808 246° West 458 527 23,900 -3,300 Descending Houston Center
15:45 30.9208 -97.0064 249° West 450 518 20,000 -3,360 Descending Houston Center
15:46 30.8831 -97.1181 251° West 427 491 17,200 -3,300 Descending Houston Center
15:47 30.8469 -97.2369 253° West 407 468 13,400 -3,420 Descending Houston Center
15:48 30.8172 -97.3514 251° West 365 420 10,400 -3,000 Descending Houston Center
15:49 30.7928 -97.4319 249° West 302 348 7,400 -2,820 Descending Houston Center
15:50 30.7689 -97.5031 255° West 256 295 4,800 -1,860 Descending Houston Center
15:51 30.7533 -97.5722 275° West 239 275 3,700 -900 Descending Houston Center
15:52 30.7575 -97.6231 251° West 188 216 3,000 -780 Descending Houston Center
15:53 30.7453 -97.6636 199° South 140 161 2,200 -900 Descending Houston Center
15:54 30.7133 -97.6761 200° South 115 132 1,300 -660 Descending Houston Center
15:55 30.6836 -97.6889 132° Southeast 122 140 900 -420 Descending Houston Center
16:02 30.6667 -97.6667 132° Southeast  Level FlightAware Approximate